Flag for U.S.A. Weather past 2 weeks in El Monte, California, U.S.A.

Now
71 °F

Passing clouds.


Feels Like: 70 °F
Forecast: 68 / 91 °F
Wind: No wind

Location: Fullerton Municipal Airport

Current Time: Jul 25, 2014 at 4:28:49 AM

Latest Report: Jul 25, 2014 at 3:53 AM


Visibility: 9 mi

Pressure: 29.84 "Hg

Humidity: 84%

Dew point: 66 °F

Location of El MonteLocation

Historic Weather in El Monte — Graph

°F

El Monte temperature yesterday

Maximum temperature yesterday: 96 °F (at 3:53 PM)
Minimum temperature yesterday: 66 °F (at 5:53 AM)
Average temperature yesterday: 81 °F

Past Weeks' High & Low Weather Summary

 TemperatureHumidityPressure
High96 °F (Jul 24, 3:53 PM)85% (Jul 12, 4:53 AM)30.05 "Hg (Jul 12, 4:53 AM)
Low65 °F (Jul 18, 5:53 AM)25% (Jul 23, 3:53 PM)29.71 "Hg (Jul 24, 5:53 PM)
Average74 °F63%29.95 "Hg
* Reported Jul 10 2:53 AM — Jul 25 2:53 AM, El Monte, Weather by CustomWeather, © 2014

Note: Actual official high and low records may vary slightly from our data, if they occured in-between our weather recording intervals... More about our weather records

Advertising

El Monte weather history for previous 24 hours

 ConditionsComfort  
Time TempWeatherWind HumidityBarometerVisibility
2:53 AM
Jul 25
71 °FClear.No wind84%29.84 "Hg10 mi
1:53 AM72 °FClear.3 mph78%29.84 "Hg10 mi
12:53 AM72 °FClear.7 mph76%29.84 "Hg9 mi
11:53 PM
Jul 24
74 °FClear.9 mph69%29.82 "Hg10 mi
10:53 PM77 °FClear.No wind52%29.80 "Hg10 mi
9:53 PM79 °FClear.6 mph47%29.79 "Hg10 mi
8:53 PM81 °FSunny.5 mph44%29.76 "Hg10 mi
7:53 PM84 °FSunny.5 mph38%29.73 "Hg10 mi
6:53 PM89 °FSunny.7 mph31%29.72 "Hg10 mi
5:53 PM92 °FSunny.6 mph28%29.71 "Hg10 mi
4:53 PM96 °FSunny.6 mph25%29.72 "Hg10 mi
3:53 PM96 °FSunny.8 mph29%29.74 "Hg10 mi
2:53 PM92 °FSunny.9 mph36%29.76 "Hg10 mi
1:53 PM92 °FSunny.10 mph35%29.78 "Hg10 mi
12:53 PM92 °FSunny.8 mph36%29.79 "Hg10 mi
11:53 AM92 °FSunny.3 mph30%29.80 "Hg10 mi
10:53 AM88 °FSunny.No wind35%29.82 "Hg10 mi
9:53 AM83 °FSunny.5 mph44%29.83 "Hg10 mi
8:53 AM77 °FSunny.No wind56%29.85 "Hg10 mi
7:53 AM73 °FSunny.No wind64%29.86 "Hg10 mi
6:53 AM69 °FClear.No wind70%29.86 "Hg10 mi
5:53 AM66 °FClear.No wind78%29.85 "Hg10 mi
4:53 AM67 °FClear.No wind76%29.83 "Hg10 mi
Weather by CustomWeather, © 2014

See weather overviewHow to use our weather pages